Location: �clusier
(49.9361°N, 2.7869°E)
Time: 21:12:00
(UTC+00:00)

Meteor 1-4 Rocket - Pass Details

Date: 16 June 2021
Orbit: 447 x 499 km, 81.2° (Epoch: 02 August)

Event Time Altitude Azimuth Distance (km) Brightness Sun altitude
Rises 23:38:42 0° 349° (NNW) 2,500 7.9 -16.6°
Reaches altitude 10° 23:40:49 10° 350° (N) 1,612 6.5 -16.7°
Maximum altitude 23:44:20 78° 78° (ENE) 470 2.4 -16.7°
Enters shadow 23:45:27 40° 157° (SSE) 678 2.8 -16.7°
